Regional Weather Roundup
Issued by NWS Northern Indiana

Home | Current Version | Previous Version | Graphics & Text | Print | Product List | Glossary On
Versions: 1 2 3 4 5 6 7 8 9 10 11 12 13 14 15 16 17 18 19 20 21 22 23 24 25 26 27 28 29 30 31 32 33 34 35 36 37 38 39 40 41 42 43 44 45 46 47 48 49 50
000
ASUS43 KIWX 050800
RWRIWX

KIWX WEATHER ROUNDUP
NATIONAL WEATHER SERVICE NORTHERN INDIANA
300 AM EST THU MAR 05 2015

NOTE: "FAIR" INDICATES FEW OR NO CLOUDS BELOW 12,000 FEET WITH NO
SIGNIFICANT WEATHER AND/OR OBSTRUCTIONS TO VISIBILITY.

* THESE STATIONS ARE NOT UNDER NWS QUALITY CONTROL. THEY ALSO MAY NOT
  REPORT WEATHER SUCH AS PRECIPITATION OR FOG.

INZ001>027-050900-
NORTHERN INDIANA

CITY           SKY/WX    TMP DP  RH WIND       PRES   REMARKS
SOUTH BEND     CLOUDY    15   5  64 N7        30.30F WCI   5
GOSHEN         MOCLDY    12   2  64 N6        30.29F WCI   3
MONTICELLO*    PTCLDY    11   4  74 NW6       30.32S WCI   1
ANGOLA*        CLEAR     10   0  61 N5        30.27S WCI   2
FORT WAYNE     CLOUDY    17   5  59 N12       30.28F WCI   4
PERU/GRISSOM   CLOUDY    17   6  61 NW8       30.29R WCI   7

$$
INZ028>050-050900-
CENTRAL INDIANA

CITY           SKY/WX    TMP DP  RH WIND       PRES   REMARKS
LAFAYETTE      MOCLDY    13   4  67 N10       30.34S WCI   0
KOKOMO*          N/A    N/A N/A N/A MISG        N/A
MUNCIE*        CLOUDY    19   8  62 N9        30.27R WCI   8
INDIANAPOLIS   CLOUDY    18   7  62 N10       30.29S WCI   6

$$
MIZ043>046-050>051-056>058-064>065-071>073-077>080-050900-
SOUTHWEST LOWER MICHIGAN

CITY           SKY/WX    TMP DP  RH WIND       PRES   REMARKS
BATTLE CREEK   CLEAR     10  -3  55 N5        30.28S WCI   2
BENTON HARBOR  CLOUDY    15   5  64 VRB6      30.32R WCI   6
COLDWATER*     PTCLDY    10  -4  53 CALM      30.27F
HILLSDALE*     MOCLDY    10  -3  54 N5        30.25F WCI   2
HOLLAND        PTCLDY    11   6  81 N3        30.31F
GRAND RAPIDS   CLEAR      8  -2  63 NW5       30.30R WCI   0
KALAMAZOO      CLEAR      9  -2  61 N3        30.29S
STURGIS*       PTCLDY    10   0  61 CALM      30.28F
THREE RIVERS*  FAIR      11   0  62 CALM      30.30F

$$
OHZ001>008-015>018-024>025-050900-
NORTHWEST OHIO

CITY           SKY/WX    TMP DP  RH WIND       PRES   REMARKS
DEFIANCE       CLOUDY    16  -1  47 N10       30.31R WCI   4
FINDLAY        CLOUDY    17   2  51 N9        30.27R WCI   6
TOLEDO EXPRESS CLOUDY    15   0  51 N9        30.29R WCI   3
TOLEDO METCALF CLOUDY    16   0  49 N12       30.30R WCI   3
LIMA           CLOUDY    18   5  57 N13       30.26R WCI   5

$$
AND FOR LAKE MICHIGAN COASTAL AND OPEN LAKE BUOY OBSERVATIONS

STATION/POSITION TEMP    WIND        PRES    VSBY  WAVE
                 AIR SEA DIR/SP/G                  HT/PER
                 (F)     (DEG/KT/KT) (MB)    (MI)  (FT/S)
CALUMET HARBOR    13     290/  9/ 12 1026.3F
MICHIGAN CITY     15     270/ 11/ 12   N/A
SAINT JOSEPH      17     340/ 10/ 17 1027.1R

$$
&&



USA.gov is the U.S. government's official web portal to all federal, state and local government web resources and services.